Regional Weather Roundup
Issued by NWS

Home | Current Version | Previous Version | Text Only | Print | Product List | Glossary On
Versions: 1 2 3 4 5 6 7 8 9 10 11 12 13 14 15 16 17 18 19 20 21 22 23 24 25 26 27
000
ASUS44 KBMX 280010
RWRAL

ALABAMA REGIONAL WEATHER ROUNDUP
NATIONAL WEATHER SERVICE BIRMINGHAM AL
700 PM CDT WED JUL 27 2016

NOTE: "FAIR" INDICATES FEW OR NO CLOUDS BELOW 12,000 FEET
WITH NO SIGNIFICANT WEATHER AND/OR OBSTRUCTIONS TO VISIBILITY.

THE REMARK "TC" DENOTES TEMPERATURE IN DEGREES CELSIUS.

ALZ001>011-014-016>018-020-280100-
NORTH ALABAMA

CITY           SKY/WX    TMP DP  RH WIND       PRES   REMARKS
MUSCLE SHOALS  CLOUDY    85  71  63 S12       29.93F HX  90
6HR MIN TEMP:  85; 6HR MAX TEMP:  92;

HUNTSVILLE     PTCLDY    87  69  54 S20G29    29.94F HX  91
6HR MIN TEMP:  87; 6HR MAX TEMP:  94;

DECATUR        CLEAR     84  72  67 S20G29    29.94F
6HR MIN TEMP:  84; 6HR MAX TEMP:  91;

HALEYVILLE     CLOUDY    78  74  87 S9        29.98F
6HR MIN TEMP:  78; 6HR MAX TEMP:  88;

GADSDEN        LGT RAIN  76  71  85 SW8         N/A
6HR MIN TEMP:  76; 6HR MAX TEMP:  89; 6HR PCP:  0.01;

$$

ALZ012-013-022-023-030>036-040>044-280100-
WEST CENTRAL ALABAMA

CITY           SKY/WX    TMP DP  RH WIND       PRES   REMARKS
TUSCALOOSA     PTCLDY    80  76  87 S5        29.97S
6HR MIN TEMP:  80; 6HR MAX TEMP:  89; 6HR PCP: TRACE;

$$

ALZ015-024>027-033>036-040>044-280100-
CENTRAL ALABAMA

CITY           SKY/WX    TMP DP  RH WIND       PRES   REMARKS
BIRMINGHAM     CLOUDY    83  72  69 S12       30.02F
6HR MIN TEMP:  82; 6HR MAX TEMP:  89; 6HR PCP: TRACE;

MONTGOMERY     PTCLDY    87  72  60 SW7       30.01R HX  93
6HR MIN TEMP:  79; 6HR MAX TEMP:  92; 6HR PCP:  0.01;

SHELBY CO ARPT PTCLDY    83  73  72 S6        30.00F
6HR MIN TEMP:  77; 6HR MAX TEMP:  89; 6HR PCP:  0.09;

MAXWELL AFB    CLEAR     87  73  62 SW5       30.01R HX  95
6HR MIN TEMP:  79; 6HR MAX TEMP:  91; 6HR PCP:  0.02;

GREENVILLE     FAIR      82  72  71 W5        30.03R
6HR MIN TEMP:  77; 6HR MAX TEMP:  91; 6HR PCP:  0.02;

$$

ALZ019-021-028-029-037-038-045>048-280100-
EAST CENTRAL ALABAMA

CITY           SKY/WX    TMP DP  RH WIND       PRES   REMARKS
ANNISTON       PTCLDY    81  70  69 SW5       30.02S
6HR MIN TEMP:  81; 6HR MAX TEMP:  90;

ALEXANDER CITY CLEAR     82  75  80 SW3       30.03F
6HR MIN TEMP:  75; 6HR MAX TEMP:  89; 6HR PCP:  0.03;

AUBURN         PTCLDY    85  71  63 W5        30.05S HX  90
6HR MIN TEMP:  85; 6HR MAX TEMP:  91; 6HR PCP: TRACE;

$$

ALZ051>064-280100-
SOUTHWEST ALABAMA

CITY           SKY/WX    TMP DP  RH WIND       PRES   REMARKS
MOBILE         PTCLDY    81  74  79 SW6       30.05R
6HR MIN TEMP:  81; 6HR MAX TEMP:  90; 6HR PCP:  0.01;

BROOKLEY FIELD PTCLDY    83  75  77 VRB5      30.05R HX  90
6HR MIN TEMP:  82; 6HR MAX TEMP:  91;

EVERGREEN      PTCLDY    84  73  69 NW10G20   30.04R HX  90
6HR MIN TEMP:  78; 6HR MAX TEMP:  91; 6HR PCP: TRACE;

$$

ALZ049-050-065>069-280100-
SOUTHEAST ALABAMA

CITY           SKY/WX    TMP DP  RH WIND       PRES   REMARKS
DOTHAN         PTCLDY    87  71  58 SW9       30.06R HX  93
6HR MIN TEMP:  87; 6HR MAX TEMP:  92;

OZARK          CLEAR     87  73  63 S8        30.03R HX  94
6HR MIN TEMP:  85; 6HR MAX TEMP:  91; 6HR PCP:  0.02;

TROY           CLOUDY    82  76  81 CALM      30.04R
6HR MIN TEMP:  78; 6HR MAX TEMP:  92; 6HR PCP:  0.10;

EUFAULA        FAIR      88  72  58 SW5       30.02R HX  94
6HR MIN TEMP:  88; 6HR MAX TEMP:  94;

$$




USA.gov is the U.S. government's official web portal to all federal, state and local government web resources and services.